Theta_e
329 329 331 337 335 331 330 334 327 335 328 322 325 323 320 320 321 326 308 306 306 307 308 313 317 317 317 318 318 319 319 318 317 319 319 323 328 333 335 336 336 334 333 333 334 334 331 334 331
329 330 334 335 331 335 328 323 326 327 326 321 320 319 317 313 315 307 306 305 305 305 304 305 312 314 314 314 315 315 316 317 318 318 318 319 318 320 326 331 334 336 335 335 333 333 334 333 333
330 330 329 321 322 327 327 320 319 321 321 323 316 310 310 312 308 307 306 305 304 303 302 303 308 310 311 310 311 312 314 316 317 317 317 318 318 318 317 317 318 330 333 335 335 335 332 333 334
329 331 324 321 322 318 320 315 313 319 319 318 315 312 308 308 308 307 307 306 303 303 303 303 303 303 303 304 305 308 312 313 312 312 316 317 318 317 317 317 316 313 311 326 331 333 333 330 327
331 326 321 320 320 317 311 312 312 316 312 310 312 309 309 308 308 307 306 303 302 302 302 302 301 300 302 303 303 305 306 308 308 309 310 311 312 314 316 317 315 314 311 307 308 320 329 333 333
332 324 322 323 320 316 310 309 307 308 310 309 310 309 301 302 307 305 303 302 302 301 301 300 299 299 298 298 300 302 304 304 304 305 306 306 307 308 310 312 312 314 314 310 309 306 308 318 330
329 321 321 319 318 315 312 308 305 304 304 303 310 305 301 302 302 302 302 301 300 299 298 298 298 298 297 297 297 300 302 302 303 303 303 299 301 302 304 305 309 307 312 313 315 313 308 306 307
329 319 320 320 320 316 308 305 303 303 302 303 303 301 301 301 300 300 299 299 298 298 298 297 297 297 297 297 297 299 300 300 300 300 298 298 298 296 297 302 304 305 306 315 313 316 316 315 315
322 318 320 320 317 311 306 305 303 302 301 302 301 301 300 300 299 298 298 298 298 297 297 297 297 297 296 296 296 296 296 296 297 296 297 296 296 296 296 296 298 303 305 307 311 314 316 315 312
318 317 319 313 310 306 305 305 303 302 301 301 301 300 299 299 298 298 298 298 297 297 297 297 296 296 296 296 296 296 296 296 296 296 296 296 296 297 296 296 296 296 300 306 307 308 311 311 308
315 316 311 305 306 305 304 303 302 302 300 300 300 299 298 298 298 298 297 297 297 297 297 297 297 296 296 296 296 296 296 296 296 297 297 296 296 297 297 297 296 296 296 301 305 305 306 306 306
313 309 309 308 306 304 303 302 301 301 300 299 298 298 297 297 297 297 297 297 297 297 297 296 296 296 296 297 296 296 297 297 297 297 299 298 297 297 297 297 297 296 296 296 302 305 305 306 305
309 307 307 307 304 303 302 301 300 300 299 298 298 297 297 297 297 297 297 297 297 297 296 296 297 296 295 296 297 296 296 297 297 297 297 297 297 297 297 297 297 297 296 297 298 302 304 306 305
308 305 304 303 303 302 301 300 301 299 298 298 297 296 296 296 296 296 296 296 296 296 295 296 296 295 296 297 297 297 297 297 297 297 297 297 297 298 297 297 297 297 297 297 298 299 302 304 305
308 306 304 303 303 302 303 300 299 298 298 297 296 296 296 296 296 296 296 296 295 296 295 296 297 297 296 296 297 297 297 296 296 297 297 297 297 298 298 297 298 297 297 296 298 297 299 301 302
309 308 309 305 304 303 303 300 299 297 297 296 295 295 295 296 296 296 295 295 296 296 296 297 297 297 296 296 296 296 296 296 296 296 296 297 297 297 297 297 298 298 298 297 297 298 298 300 301
306 308 310 307 305 303 302 300 298 297 296 295 295 295 295 295 296 295 295 295 296 297 298 298 297 297 296 296 296 296 297 296 296 296 296 296 296 297 297 297 298 298 298 298 297 297 298 299 300
308 308 308 307 303 300 299 298 296 296 295 294 294 295 295 295 295 295 294 295 296 298 299 298 298 298 297 297 297 297 297 297 297 297 296 296 296 296 296 297 297 297 297 297 297 298 297 297 298
306 306 305 304 302 300 299 297 295 296 295 294 294 294 294 294 295 294 294 295 296 298 298 298 298 297 297 297 296 297 297 297 297 297 296 297 296 297 296 296 296 296 296 297 297 297 297 297 297
305 304 303 303 302 300 299 299 298 295 295 294 293 294 294 294 295 293 294 295 296 296 296 296 296 296 296 296 296 296 296 297 297 297 297 296 297 297 297 297 296 296 296 296 297 297 297 297 297
304 304 302 302 301 300 300 300 294 294 294 294 294 294 294 294 294 293 293 295 296 296 296 296 296 295 295 295 296 296 297 296 296 296 297 296 297 297 297 297 297 296 296 296 296 297 298 298 298
303 303 301 302 303 303 300 302 295 291 292 293 293 293 294 294 293 293 293 294 295 296 295 294 294 294 295 296 296 296 296 297 296 296 296 296 297 297 297 298 298 297 296 296 296 297 298 298 298
302 300 301 303 301 301 302 299 293 291 292 292 292 293 293 294 292 293 293 295 295 295 294 293 293 293 294 295 295 296 297 297 296 296 296 296 296 297 297 298 298 297 297 296 296 296 297 297 297
300 302 303 302 302 304 299 297 292 291 292 292 293 293 293 293 292 292 293 295 295 294 293 293 292 293 295 295 295 296 296 296 297 296 296 295 296 297 298 298 298 298 297 296 296 296 297 297 297
297 298 301 303 301 300 296 296 291 292 292 292 292 293 294 292 292 292 293 295 295 293 293 292 292 293 293 293 295 295 295 296 296 296 296 296 297 298 297 298 299 298 297 297 297 296 297 297 297
297 296 297 301 299 298 298 297 293 293 292 292 293 293 293 292 292 292 294 295 294 293 292 292 292 293 293 293 294 295 295 296 296 296 297 298 298 297 297 296 299 298 296 296 297 297 297 297 297
297 295 296 298 297 296 296 293 294 293 292 292 293 293 293 292 291 292 294 294 293 293 292 292 292 292 293 293 294 295 295 295 295 296 298 298 298 297 296 295 296 296 295 296 296 297 297 297 297
295 296 296 295 293 296 293 294 292 292 292 292 292 293 292 291 291 291 294 294 293 292 292 292 292 292 293 293 294 295 294 295 294 295 297 297 298 298 296 295 295 295 296 296 296 296 297 298 297
294 294 293 293 293 291 293 294 290 291 290 291 292 292 291 291 291 292 294 294 293 292 292 292 292 292 293 292 293 294 294 294 294 294 296 297 297 297 296 296 295 295 295 295 296 296 297 297 297
295 295 292 293 292 291 289 293 293 291 292 292 292 292 291 291 291 292 294 294 292 292 292 292 292 292 292 292 293 294 294 294 294 295 296 296 296 296 297 297 296 296 296 295 296 296 296 296 297
Wind_Speed
6 4 4 2 4 6 3 6 3 5 4 13 15 15 13 12 4 3 10 15 16 18 20 19 21 22 22 23 24 24 22 20 20 21 17 13 13 14 12 9 7 10 12 12 13 13 13 11 11
4 4 3 3 5 4 1 3 7 9 8 10 11 9 11 4 5 7 12 11 14 18 20 20 21 22 24 23 23 23 23 22 22 21 20 20 21 18 14 15 14 9 9 10 13 14 15 14 14
5 4 5 4 4 3 2 5 6 8 11 3 5 12 5 4 9 5 11 12 14 16 17 19 20 21 21 22 23 24 23 22 22 21 21 21 20 20 20 17 14 15 15 12 11 12 14 15 15
2 3 8 5 6 4 3 6 10 4 8 9 11 8 9 10 6 8 8 9 11 15 20 24 26 25 26 25 24 23 21 22 23 21 20 17 18 19 19 18 17 16 13 16 17 15 16 20 20
3 5 5 5 4 3 5 7 16 6 6 14 1 6 7 9 5 7 9 10 14 18 21 25 28 28 27 27 27 25 24 24 24 22 21 21 20 16 13 14 18 16 16 14 14 13 16 18 19
3 5 5 3 4 4 3 7 8 12 13 10 10 7 9 11 6 9 9 13 17 22 25 26 28 28 29 28 26 25 24 25 24 24 24 22 22 22 20 18 17 16 19 17 17 14 14 15 19
5 4 4 5 7 3 3 2 8 11 13 17 5 5 7 12 11 12 15 18 20 24 28 31 31 30 33 32 30 28 26 25 24 25 25 25 25 25 24 23 24 22 18 18 18 18 16 16 16
6 6 4 4 5 3 2 6 15 8 8 5 5 5 3 13 15 17 19 22 24 28 31 33 33 35 37 35 35 29 28 26 25 27 27 26 25 26 28 28 25 24 23 17 20 18 18 16 14
4 5 3 4 5 6 12 6 13 18 23 23 13 13 10 14 16 22 26 27 29 32 32 32 34 34 33 34 34 33 34 34 32 31 29 28 29 28 27 26 27 27 24 24 16 15 16 18 19
7 4 2 4 5 5 10 10 7 8 18 16 13 12 12 14 19 22 25 30 33 31 32 34 30 32 32 33 34 35 36 34 33 32 32 32 33 32 31 29 25 26 28 25 22 21 17 20 23
5 4 5 12 23 19 13 14 6 13 6 10 11 13 15 20 22 24 29 30 27 30 35 32 37 36 38 38 29 27 29 32 35 37 37 37 35 33 31 31 28 26 25 28 26 26 23 21 24
7 14 10 11 16 10 6 9 18 20 11 11 14 16 19 23 23 28 29 30 32 34 33 39 38 41 32 37 30 36 32 32 35 36 33 33 32 34 33 33 32 29 24 23 26 27 28 23 21
7 5 11 15 20 23 23 17 15 14 11 14 14 21 22 23 26 27 30 32 34 33 36 38 41 37 35 37 33 32 34 36 37 34 29 30 34 33 32 30 30 27 25 23 23 24 24 25 20
9 24 22 22 21 12 16 8 5 7 12 17 22 24 24 27 28 27 31 32 35 36 35 42 37 34 40 36 33 34 35 36 33 27 25 24 26 30 31 30 32 28 26 25 24 25 23 21 13
20 7 11 10 7 10 17 8 3 8 15 20 23 24 26 26 26 28 32 36 37 37 38 36 39 38 33 34 36 32 29 29 29 29 28 27 28 29 29 31 29 29 27 29 26 27 24 25 23
5 4 3 6 8 9 3 2 3 13 17 21 24 26 28 29 30 33 36 35 38 35 37 40 36 35 36 36 36 34 33 30 28 27 28 29 27 25 27 30 32 32 30 28 28 26 29 24 24
5 1 2 3 4 4 3 3 8 13 19 20 25 27 32 35 35 36 36 36 35 37 39 36 38 36 36 36 34 34 33 31 30 29 28 27 29 31 34 35 35 36 36 34 33 33 30 30 26
3 0 2 3 2 7 9 6 7 13 16 19 28 33 34 37 36 35 38 36 36 36 37 37 38 37 33 33 33 34 34 33 30 29 29 28 28 27 26 27 31 35 37 37 35 30 28 31 30
2 3 2 3 4 6 5 7 5 2 20 25 31 35 35 34 33 34 37 36 38 36 36 37 40 37 34 34 35 36 35 35 33 30 28 26 26 27 27 27 26 28 32 34 34 33 33 33 32
5 3 3 3 3 6 4 4 2 9 12 17 23 32 32 35 37 39 39 36 40 38 36 33 37 35 37 34 35 36 38 37 35 36 34 28 26 25 25 27 27 27 29 34 36 33 32 32 32
3 4 3 5 5 7 6 1 3 4 11 26 31 32 34 37 37 41 40 38 41 39 34 33 34 36 36 36 38 37 39 36 37 38 36 33 28 25 24 24 25 27 28 31 34 33 28 29 27
3 4 3 7 5 3 2 4 4 7 8 21 25 34 37 37 38 38 39 41 40 37 35 37 35 36 35 36 37 40 38 38 41 39 38 37 32 28 24 24 24 24 27 28 29 33 30 26 22
7 8 1 4 5 4 3 2 2 5 11 17 25 31 35 35 36 38 39 41 38 35 33 36 34 34 33 34 35 37 39 39 40 38 37 34 29 26 26 25 24 23 23 28 26 30 35 28 25
12 2 5 5 3 2 2 4 2 5 11 15 25 29 34 36 39 37 37 39 38 36 34 36 36 35 34 36 37 35 37 41 44 44 41 35 30 27 24 23 23 22 20 23 24 28 29 30 26
10 6 3 3 3 5 3 3 4 5 8 13 23 29 34 37 38 41 42 43 40 42 40 39 39 40 38 42 39 37 37 41 42 38 34 32 29 25 27 27 25 20 16 18 19 21 27 31 24
5 4 4 4 3 5 3 2 4 2 15 19 25 26 30 35 37 38 37 39 37 36 40 40 40 39 41 44 40 36 35 39 40 36 32 30 28 25 25 24 13 10 12 14 14 18 20 24 28
5 6 1 1 1 2 2 2 1 15 20 23 26 29 32 36 38 40 38 37 36 39 40 39 39 37 38 39 39 37 35 38 38 34 28 26 25 27 24 20 16 10 8 10 13 11 17 19 23
7 1 2 3 3 5 3 1 4 13 16 17 26 31 36 38 39 39 40 39 36 39 38 37 35 36 40 39 38 37 35 35 38 34 31 27 24 23 23 19 15 11 7 7 10 13 9 15 18
5 4 6 4 2 3 3 3 5 6 11 14 25 29 33 38 40 38 41 40 34 36 37 39 37 40 40 39 37 37 35 34 35 34 31 28 23 22 21 19 16 13 10 9 7 8 8 11 18
2 3 3 4 5 2 3 5 4 5 15 22 26 30 34 33 36 34 39 39 36 38 40 39 42 39 41 38 37 37 35 33 33 35 32 29 29 28 18 17 16 14 10 9 7 8 9 10 14
Wind_Direction
27 17 327 4 63 63 37 353 323 7 70 51 74 78 94 51 38 109 27 31 25 15 12 7 4 4 7 7 7 5 359 354 356 1 358 341 322 317 316 331 310 283 280 277 274 268 260 257 252
18 351 21 52 76 64 72 308 19 11 111 115 53 56 53 80 59 59 46 36 23 13 2 360 356 356 358 356 355 354 353 358 358 350 347 352 355 352 315 303 304 317 283 274 267 267 260 255 253
32 47 47 69 64 98 122 10 322 63 58 240 101 57 60 35 40 56 43 32 21 10 359 349 351 352 350 347 344 344 346 346 344 345 348 340 339 342 349 337 316 295 288 289 273 262 256 259 259
47 73 67 71 82 25 62 338 317 273 19 40 95 58 68 52 46 47 14 356 4 350 340 339 336 334 333 330 331 339 343 340 338 335 335 328 337 331 330 327 333 325 306 289 284 286 264 250 247
86 72 62 79 59 85 35 34 44 50 82 47 101 83 76 31 48 2 356 356 345 337 333 330 328 331 334 333 334 335 331 329 330 334 325 322 299 297 295 316 312 308 307 301 294 282 279 267 242
65 88 70 105 103 135 81 33 44 53 60 19 79 81 53 43 22 12 340 334 327 325 328 329 327 324 325 325 329 332 331 329 328 329 325 319 305 292 288 282 279 308 301 297 301 291 280 270 272
98 73 111 127 166 157 125 348 26 45 47 35 93 80 58 31 11 345 328 324 326 332 334 334 333 331 330 327 324 326 326 324 324 323 320 311 310 297 285 285 281 283 303 300 300 293 287 278 272
96 92 113 173 178 118 77 96 56 53 28 44 59 51 14 6 354 344 338 338 336 334 332 330 327 326 327 324 323 323 318 317 314 315 311 310 303 300 296 284 279 278 275 300 295 292 292 286 283
92 72 141 158 139 142 149 123 81 79 79 72 75 63 30 2 343 343 342 337 335 333 331 329 327 326 324 320 318 315 315 312 311 311 307 304 302 300 296 289 280 277 278 276 277 289 281 280 269
60 75 108 358 94 107 91 102 106 88 75 70 65 41 16 354 352 348 345 340 336 334 330 331 325 323 319 312 305 303 303 304 304 303 302 303 301 298 296 293 286 281 272 274 270 262 266 267 268
42 99 97 68 107 106 94 80 98 106 41 72 49 26 16 2 356 350 342 341 337 331 329 327 325 324 323 320 318 305 300 297 296 296 294 294 297 296 295 291 285 286 279 260 262 263 261 265 271
94 49 110 136 113 96 84 100 82 96 107 66 44 30 4 360 354 346 343 338 334 331 329 331 327 326 324 328 315 308 308 304 304 302 299 294 292 292 293 290 289 285 280 279 259 261 263 265 273
80 101 73 118 107 105 109 96 100 96 81 57 36 14 7 360 350 345 344 340 339 337 332 331 328 329 324 320 313 310 306 306 307 304 301 289 288 291 291 293 288 286 278 273 270 260 261 253 266
101 104 101 104 109 123 109 89 100 73 63 45 20 14 6 358 351 346 346 344 342 337 336 332 332 322 317 323 320 312 307 306 308 309 299 296 292 291 290 289 287 288 278 273 269 267 257 252 257
112 86 90 132 123 130 91 36 64 70 58 34 19 10 2 358 358 353 347 346 344 342 336 333 326 329 333 328 325 322 321 311 304 300 300 295 288 289 282 282 282 279 278 274 273 269 263 259 253
73 91 113 211 182 180 29 124 61 71 48 30 15 7 2 2 1 357 353 349 346 343 339 334 346 349 342 338 337 338 336 334 321 307 300 296 293 285 277 274 273 275 275 275 269 271 261 258 255
22 305 137 135 210 129 57 151 88 62 42 25 13 6 3 2 2 357 352 347 351 347 352 357 358 348 348 344 345 342 340 338 334 329 320 310 293 283 277 273 271 271 274 270 269 270 267 260 257
256 164 123 176 155 54 93 116 106 57 37 20 9 7 3 360 356 352 349 349 351 352 359 358 356 352 350 347 345 343 340 339 336 331 326 319 311 311 303 290 280 272 269 268 263 266 264 263 260
203 127 96 84 137 81 118 122 123 113 30 14 3 1 359 353 351 349 351 350 348 351 352 354 353 353 356 354 349 347 341 341 339 334 329 324 317 312 306 303 295 280 265 263 263 263 261 260 257
137 117 63 50 83 87 159 135 178 21 34 7 354 355 351 349 350 349 351 350 349 348 345 348 352 354 352 353 351 350 347 343 335 335 330 324 319 309 302 297 296 288 275 262 259 257 264 259 255
346 142 159 214 106 50 118 6 359 344 8 355 357 353 355 352 348 346 348 348 350 348 346 345 347 352 349 352 351 347 345 335 335 334 329 328 323 315 305 297 289 286 284 269 257 255 252 259 257
315 101 285 177 142 193 203 280 357 345 334 347 344 353 352 347 347 347 348 348 348 348 347 349 347 352 352 357 353 350 340 332 338 336 333 326 324 318 311 302 294 284 278 274 262 252 249 252 241
253 325 205 125 144 103 213 9 277 347 344 342 342 345 349 346 347 347 348 347 346 346 347 348 347 355 356 357 357 352 348 341 342 339 331 328 320 317 308 305 299 285 274 270 264 254 247 241 243
305 47 52 60 88 341 232 166 356 2 327 331 341 346 344 346 347 349 348 348 348 349 349 349 350 0 358 0 359 356 354 350 343 341 340 336 332 327 327 319 307 297 272 264 263 251 244 237 246
12 40 347 352 5 240 120 53 219 306 314 326 331 337 345 347 347 348 350 348 351 352 352 351 352 355 357 2 358 358 357 355 346 345 346 349 345 342 339 335 316 296 291 264 265 251 248 236 235
11 64 115 268 298 295 320 216 188 250 341 345 342 343 345 348 349 349 350 347 350 351 352 354 356 351 352 355 357 359 360 355 350 352 358 1 356 346 347 340 340 338 297 267 255 260 241 238 236
335 38 258 89 323 350 276 6 121 357 347 342 339 347 348 349 348 349 351 350 350 352 355 355 356 354 355 359 359 1 4 2 354 354 357 359 1 356 350 347 347 333 314 279 276 257 241 240 240
87 31 21 15 19 307 307 336 269 335 332 340 348 347 346 348 349 350 351 352 351 356 355 357 2 359 356 0 3 4 6 7 2 4 1 359 3 3 357 359 1 356 330 304 303 247 240 245 242
349 20 46 109 98 176 312 285 219 287 318 334 345 346 345 345 347 348 350 353 352 356 359 2 2 358 359 3 5 5 9 12 8 10 12 16 10 2 3 0 359 357 346 330 293 283 270 260 238
95 127 111 112 276 81 141 279 204 258 336 346 342 345 345 346 346 347 350 353 353 357 4 5 5 359 3 1 7 8 11 12 13 18 20 21 25 17 4 359 350 346 347 334 308 290 265 266 256